Time,TemperatureF,DewpointF,PressureIn,WindDirection,WindDirectionDegrees,WindSpeedMPH,WindSpeedGustMPH,Humidity,HourlyPrecipIn,Conditions,Clouds,dailyrainin,SoftwareType,DateUTC
2013-06-20 00:01:00,59.0,5.0,-100.00,SSE,160,5.0,6.0,11,-99.99,,,-99.99,,2013-06-20 06:01:00,
2013-06-20 00:11:00,59.0,5.0,-100.00,SSE,165,6.0,6.0,11,-99.99,,,-99.99,,2013-06-20 06:11:00,
2013-06-20 00:22:00,60.0,6.0,-100.00,South,180,6.0,8.0,11,-99.99,,,-99.99,,2013-06-20 06:22:00,
2013-06-20 00:33:00,62.0,7.0,-100.00,SSW,210,6.0,6.0,10,-99.99,,,-99.99,,2013-06-20 06:33:00,
2013-06-20 00:43:00,63.0,6.0,-100.00,SW,235,6.0,7.0,10,-99.99,,,-99.99,,2013-06-20 06:43:00,
2013-06-20 00:53:00,63.0,5.0,-100.00,SW,225,7.0,9.0,9,-99.99,,,-99.99,,2013-06-20 06:53:00,
2013-06-20 01:01:00,58.0,3.0,-100.00,WNW,295,12.0,19.0,10,-99.99,,,-99.99,,2013-06-20 07:01:00,
2013-06-20 01:12:00,58.0,6.0,-100.00,NW,310,18.0,24.0,12,-99.99,,,-99.99,,2013-06-20 07:12:00,
2013-06-20 01:22:00,56.0,9.0,-100.00,NW,310,17.0,24.0,14,-99.99,,,-99.99,,2013-06-20 07:22:00,
2013-06-20 01:34:00,56.0,10.0,-100.00,NW,320,17.0,24.0,15,-99.99,,,-99.99,,2013-06-20 07:34:00,
2013-06-20 01:43:00,56.0,11.0,-100.00,NW,305,18.0,28.0,16,-99.99,,,-99.99,,2013-06-20 07:43:00,
2013-06-20 01:52:00,56.0,12.0,-100.00,NW,315,18.0,26.0,17,-99.99,,,-99.99,,2013-06-20 07:52:00,
2013-06-20 02:02:00,55.0,12.0,-100.00,NW,320,16.0,26.0,17,-99.99,,,-99.99,,2013-06-20 08:02:00,
2013-06-20 02:11:00,55.0,13.0,-100.00,NW,320,19.0,24.0,18,-99.99,,,-99.99,,2013-06-20 08:11:00,
2013-06-20 02:22:00,55.0,13.0,-100.00,NW,320,23.0,30.0,18,-99.99,,,-99.99,,2013-06-20 08:22:00,
2013-06-20 02:34:00,54.0,12.0,-100.00,NW,320,21.0,30.0,18,-99.99,,,-99.99,,2013-06-20 08:34:00,
2013-06-20 02:43:00,54.0,12.0,-100.00,NW,310,22.0,27.0,18,-99.99,,,-99.99,,2013-06-20 08:43:00,
2013-06-20 02:52:00,54.0,13.0,-100.00,NW,320,24.0,30.0,19,-99.99,,,-99.99,,2013-06-20 08:52:00,
2013-06-20 03:02:00,53.0,12.0,-100.00,NW,315,19.0,29.0,19,-99.99,,,-99.99,,2013-06-20 09:02:00,
2013-06-20 03:12:00,53.0,13.0,-100.00,NW,320,21.0,32.0,19,-99.99,,,-99.99,,2013-06-20 09:12:00,
2013-06-20 03:22:00,53.0,13.0,-100.00,NW,310,23.0,29.0,19,-99.99,,,-99.99,,2013-06-20 09:22:00,
2013-06-20 03:33:00,52.0,12.0,-100.00,NW,310,19.0,29.0,19,-99.99,,,-99.99,,2013-06-20 09:33:00,
2013-06-20 03:42:00,52.0,13.0,-100.00,NW,315,23.0,29.0,20,-99.99,,,-99.99,,2013-06-20 09:42:00,
2013-06-20 03:52:00,51.0,12.0,-100.00,WNW,300,19.0,34.0,20,-99.99,,,-99.99,,2013-06-20 09:52:00,
2013-06-20 04:01:00,51.0,12.0,-100.00,NW,310,21.0,29.0,20,-99.99,,,-99.99,,2013-06-20 10:01:00,
2013-06-20 04:11:00,51.0,12.0,-100.00,NW,310,20.0,29.0,20,-99.99,,,-99.99,,2013-06-20 10:11:00,
2013-06-20 04:22:00,52.0,13.0,-100.00,NW,320,27.0,32.0,20,-99.99,,,-99.99,,2013-06-20 10:22:00,
2013-06-20 04:33:00,51.0,12.0,-100.00,NW,310,21.0,32.0,20,-99.99,,,-99.99,,2013-06-20 10:33:00,
2013-06-20 04:43:00,51.0,12.0,-100.00,NW,310,19.0,31.0,20,-99.99,,,-99.99,,2013-06-20 10:43:00,
2013-06-20 04:53:00,50.0,11.0,-100.00,NW,305,17.0,26.0,20,-99.99,,,-99.99,,2013-06-20 10:53:00,
2013-06-20 05:02:00,50.0,11.0,-100.00,WNW,300,21.0,26.0,20,-99.99,,,-99.99,,2013-06-20 11:02:00,
2013-06-20 05:11:00,50.0,12.0,-100.00,WNW,285,16.0,31.0,21,-99.99,,,-99.99,,2013-06-20 11:11:00,
2013-06-20 05:22:00,48.0,11.0,-100.00,WNW,295,15.0,21.0,22,-99.99,,,-99.99,,2013-06-20 11:22:00,
2013-06-20 05:34:00,47.0,12.0,-100.00,West,280,14.0,20.0,24,-99.99,,,-99.99,,2013-06-20 11:34:00,
2013-06-20 05:42:00,47.0,13.0,-100.00,WNW,290,16.0,21.0,24,-99.99,,,-99.99,,2013-06-20 11:42:00,
2013-06-20 05:53:00,48.0,14.0,-100.00,WNW,285,16.0,24.0,24,-99.99,,,-99.99,,2013-06-20 11:53:00,
2013-06-20 06:02:00,47.0,13.0,-100.00,West,275,16.0,20.0,25,-99.99,,,-99.99,,2013-06-20 12:02:00,
2013-06-20 06:11:00,45.0,13.0,-100.00,West,275,13.0,19.0,26,-99.99,,,-99.99,,2013-06-20 12:11:00,
2013-06-20 06:22:00,45.0,13.0,-100.00,West,280,15.0,19.0,26,-99.99,,,-99.99,,2013-06-20 12:22:00,
2013-06-20 06:34:00,46.0,14.0,-100.00,West,270,15.0,19.0,26,-99.99,,,-99.99,,2013-06-20 12:34:00,
2013-06-20 06:43:00,46.0,14.0,-100.00,West,270,15.0,19.0,27,-99.99,,,-99.99,,2013-06-20 12:43:00,
2013-06-20 06:53:00,47.0,15.0,-100.00,West,280,13.0,16.0,27,-99.99,,,-99.99,,2013-06-20 12:53:00,
2013-06-20 07:02:00,48.0,15.0,-100.00,WNW,285,14.0,17.0,26,-99.99,,,-99.99,,2013-06-20 13:02:00,
2013-06-20 07:11:00,48.0,15.0,-100.00,WNW,290,13.0,17.0,26,-99.99,,,-99.99,,2013-06-20 13:11:00,
2013-06-20 07:22:00,49.0,16.0,-100.00,WNW,285,11.0,16.0,26,-99.99,,,-99.99,,2013-06-20 13:22:00,
2013-06-20 07:33:00,50.0,17.0,-100.00,West,270,12.0,16.0,26,-99.99,,,-99.99,,2013-06-20 13:33:00,
2013-06-20 07:42:00,50.0,17.0,-100.00,WNW,290,13.0,17.0,26,-99.99,,,-99.99,,2013-06-20 13:42:00,
2013-06-20 07:53:00,51.0,17.0,-100.00,WNW,285,13.0,17.0,25,-99.99,,,-99.99,,2013-06-20 13:53:00,
2013-06-20 08:01:00,53.0,18.0,-100.00,WNW,295,12.0,18.0,24,-99.99,,,-99.99,,2013-06-20 14:01:00,
2013-06-20 08:11:00,53.0,17.0,-100.00,NW,305,16.0,20.0,23,-99.99,,,-99.99,,2013-06-20 14:11:00,
2013-06-20 08:22:00,54.0,16.0,-100.00,NW,305,15.0,21.0,21,-99.99,,,-99.99,,2013-06-20 14:22:00,
2013-06-20 08:32:00,55.0,15.0,-100.00,NW,315,17.0,21.0,20,-99.99,,,-99.99,,2013-06-20 14:32:00,
2013-06-20 08:42:00,55.0,14.0,-100.00,NW,305,19.0,24.0,19,-99.99,,,-99.99,,2013-06-20 14:42:00,
2013-06-20 08:53:00,56.0,13.0,-100.00,NW,310,19.0,24.0,18,-99.99,,,-99.99,,2013-06-20 14:53:00,
2013-06-20 09:02:00,56.0,14.0,-100.00,NW,310,17.0,23.0,18,-99.99,,,-99.99,,2013-06-20 15:02:00,
2013-06-20 09:11:00,57.0,13.0,-100.00,NW,310,18.0,24.0,17,-99.99,,,-99.99,,2013-06-20 15:11:00,
2013-06-20 09:22:00,58.0,14.0,-100.00,NW,310,17.0,21.0,17,-99.99,,,-99.99,,2013-06-20 15:22:00,
2013-06-20 09:33:00,59.0,14.0,-100.00,NW,320,15.0,21.0,17,-99.99,,,-99.99,,2013-06-20 15:33:00,
2013-06-20 09:43:00,59.0,15.0,-100.00,NW,305,15.0,21.0,17,-99.99,,,-99.99,,2013-06-20 15:43:00,
2013-06-20 09:52:00,61.0,16.0,-100.00,WNW,300,14.0,19.0,17,-99.99,,,-99.99,,2013-06-20 15:52:00,
2013-06-20 10:01:00,63.0,17.0,-100.00,WNW,295,9.0,16.0,16,-99.99,,,-99.99,,2013-06-20 16:01:00,
2013-06-20 10:11:00,63.0,17.0,-100.00,NW,305,12.0,17.0,16,-99.99,,,-99.99,,2013-06-20 16:11:00,
2013-06-20 10:22:00,64.0,17.0,-100.00,NW,305,11.0,15.0,16,-99.99,,,-99.99,,2013-06-20 16:22:00,
2013-06-20 10:33:00,64.0,17.0,-100.00,WNW,285,9.0,15.0,15,-99.99,,,-99.99,,2013-06-20 16:33:00,
2013-06-20 10:42:00,65.0,17.0,-100.00,WNW,300,9.0,16.0,15,-99.99,,,-99.99,,2013-06-20 16:42:00,
2013-06-20 10:52:00,65.0,16.0,-100.00,WSW,250,9.0,13.0,14,-99.99,,,-99.99,,2013-06-20 16:52:00,
2013-06-20 11:01:00,66.0,16.0,-100.00,WSW,250,8.0,13.0,14,-99.99,,,-99.99,,2013-06-20 17:01:00,
2013-06-20 11:11:00,66.0,16.0,-100.00,WSW,255,8.0,13.0,14,-99.99,,,-99.99,,2013-06-20 17:11:00,
2013-06-20 11:22:00,68.0,17.0,-100.00,SSE,165,6.0,9.0,14,-99.99,,,-99.99,,2013-06-20 17:22:00,
2013-06-20 11:32:00,69.0,17.0,-100.00,SW,225,4.0,11.0,13,-99.99,,,-99.99,,2013-06-20 17:32:00,
2013-06-20 11:43:00,67.0,15.0,-100.00,SW,215,6.0,12.0,13,-99.99,,,-99.99,,2013-06-20 17:43:00,
2013-06-20 11:52:00,68.0,16.0,-100.00,SSW,195,7.0,12.0,13,-99.99,,,-99.99,,2013-06-20 17:52:00,
2013-06-20 12:01:00,69.0,16.0,-100.00,SSW,195,6.0,10.0,13,-99.99,,,-99.99,,2013-06-20 18:01:00,
2013-06-20 12:11:00,69.0,16.0,-100.00,SW,220,6.0,17.0,13,-99.99,,,-99.99,,2013-06-20 18:11:00,
2013-06-20 12:22:00,68.0,16.0,-100.00,SSW,205,6.0,14.0,13,-99.99,,,-99.99,,2013-06-20 18:22:00,
2013-06-20 12:33:00,71.0,17.0,-100.00,ESE,115,4.0,14.0,12,-99.99,,,-99.99,,2013-06-20 18:33:00,
2013-06-20 12:43:00,70.0,17.0,-100.00,SSW,210,6.0,14.0,12,-99.99,,,-99.99,,2013-06-20 18:43:00,
2013-06-20 12:53:00,73.0,19.0,-100.00,SE,125,11.0,17.0,12,-99.99,,,-99.99,,2013-06-20 18:53:00,
2013-06-20 13:01:00,71.0,17.0,-100.00,SSE,150,12.0,21.0,12,-99.99,,,-99.99,,2013-06-20 19:01:00,
2013-06-20 13:11:00,72.0,18.0,-100.00,SSE,165,14.0,21.0,12,-99.99,,,-99.99,,2013-06-20 19:11:00,
2013-06-20 13:22:00,72.0,19.0,-100.00,South,175,9.0,21.0,12,-99.99,,,-99.99,,2013-06-20 19:22:00,
2013-06-20 13:34:00,74.0,20.0,-100.00,ESE,115,16.0,23.0,13,-99.99,,,-99.99,,2013-06-20 19:34:00,
2013-06-20 13:43:00,72.0,19.0,-100.00,SSE,155,17.0,23.0,13,-99.99,,,-99.99,,2013-06-20 19:43:00,
2013-06-20 13:52:00,73.0,19.0,-100.00,SSE,155,14.0,24.0,13,-99.99,,,-99.99,,2013-06-20 19:52:00,
2013-06-20 14:02:00,73.0,20.0,-100.00,SE,130,15.0,28.0,13,-99.99,,,-99.99,,2013-06-20 20:02:00,
2013-06-20 14:11:00,72.0,20.0,-100.00,SSE,155,19.0,28.0,13,-99.99,,,-99.99,,2013-06-20 20:11:00,
2013-06-20 14:42:00,73.0,22.0,-100.00,SE,135,13.0,26.0,14,-99.99,,,-99.99,,2013-06-20 20:42:00,